When you browse on this site, cookies collect data to enhance your experience and personalize the content and advertising you see.
Visit our Privacy Policy to learn more. By continuing to use the site, you agree to this use of cookies and data.
  • In Schweiz
  • Länderverzeichnis
  • Für 7 Tage
  • Wassertemperatur
  • Wetterkarte
  • Widgets
  • user-avatar
    Anmelden

    Stündliche Wetter Dangriga

    Heute, 19 September, Donnerstag

    Zeit Temperatur Niederschläge Wind Luftdruck Luftfeuchtigkeit
    00:00 +25°C° 0 mm 1 m/S 758 mmHg 92%
    01:00 +25°C° 0 mm 1 m/S 758 mmHg 92%
    02:00 +25°C° 0 mm 2 m/S 758 mmHg 91%
    03:00 +25°C° 0 mm 2 m/S 757 mmHg 90%
    04:00 +25°C° 0 mm 2 m/S 757 mmHg 88%
    05:00 +25°C° 0 mm 2 m/S 758 mmHg 86%
    06:00 +25°C° 0 mm 2 m/S 758 mmHg 84%
    07:00 +28°C° 0 mm 2 m/S 758 mmHg 76%
    08:00 +30°C° 0 mm 2 m/S 758 mmHg 68%
    09:00 +34°C° 0 mm 2 m/S 759 mmHg 60%
    10:00 +34°C° 0.2 mm 3 m/S 758 mmHg 58%
    11:00 +35°C° 0.2 mm 3 m/S 758 mmHg 56%
    12:00 +36°C° 0.2 mm 3 m/S 757 mmHg 55%
    13:00 +34°C° 0.6 mm 3 m/S 757 mmHg 66%
    14:00 +33°C° 0.6 mm 4 m/S 756 mmHg 77%
    15:00 +30°C° 0.6 mm 4 m/S 756 mmHg 88%
    16:00 +29°C° 0.4 mm 4 m/S 756 mmHg 90%
    17:00 +28°C° 0.4 mm 4 m/S 756 mmHg 93%
    18:00 +27°C° 0.4 mm 4 m/S 756 mmHg 95%
    19:00 +27°C° 0.6 mm 4 m/S 756 mmHg 96%
    20:00 +26°C° 0.6 mm 4 m/S 757 mmHg 97%
    21:00 +26°C° 0.6 mm 3 m/S 757 mmHg 98%
    22:00 +26°C° 0.2 mm 3 m/S 757 mmHg 98%
    23:00 +26°C° 0.2 mm 3 m/S 757 mmHg 98%

    Morgen, 20 September, Freitag

    Zeit Temperatur Niederschläge Wind Luftdruck Luftfeuchtigkeit
    00:00 +26°C° 0.2 mm 3 m/S 757 mmHg 98%
    01:00 +26°C° 0.3 mm 3 m/S 757 mmHg 98%
    02:00 +26°C° 0.3 mm 3 m/S 757 mmHg 98%
    03:00 +26°C° 0.3 mm 3 m/S 757 mmHg 98%
    04:00 +26°C° 0.2 mm 3 m/S 757 mmHg 98%
    05:00 +26°C° 0.2 mm 2 m/S 757 mmHg 98%
    06:00 +25°C° 0.2 mm 2 m/S 757 mmHg 98%
    07:00 +28°C° 0.1 mm 2 m/S 758 mmHg 89%
    08:00 +30°C° 0.1 mm 2 m/S 758 mmHg 80%
    09:00 +32°C° 0.1 mm 1 m/S 759 mmHg 71%
    10:00 +32°C° 0.1 mm 2 m/S 758 mmHg 72%
    11:00 +32°C° 0.1 mm 2 m/S 758 mmHg 73%
    12:00 +32°C° 0.1 mm 2 m/S 758 mmHg 74%
    13:00 +33°C° 0.1 mm 3 m/S 757 mmHg 69%
    14:00 +34°C° 0.1 mm 3 m/S 756 mmHg 63%
    15:00 +35°C° 0.1 mm 3 m/S 756 mmHg 58%
    16:00 +33°C° 0 mm 3 m/S 756 mmHg 68%
    17:00 +29°C° 0 mm 3 m/S 756 mmHg 78%
    18:00 +27°C° 0 mm 3 m/S 757 mmHg 88%
    19:00 +27°C° 0 mm 3 m/S 757 mmHg 89%
    20:00 +26°C° 0 mm 3 m/S 758 mmHg 91%
    21:00 +26°C° 0 mm 3 m/S 758 mmHg 93%
    22:00 +26°C° 0 mm 2 m/S 758 mmHg 93%
    23:00 +26°C° 0 mm 2 m/S 758 mmHg 94%

    übermorgen, 21 September, Samstag

    Zeit Temperatur Niederschläge Wind Luftdruck Luftfeuchtigkeit
    00:00 +26°C° 0 mm 1 m/S 758 mmHg 94%
    01:00 +26°C° 0.1 mm 1 m/S 758 mmHg 94%
    02:00 +26°C° 0.1 mm 1 m/S 758 mmHg 95%
    03:00 +26°C° 0.1 mm 1 m/S 758 mmHg 95%
    04:00 +26°C° 0.1 mm 1 m/S 758 mmHg 95%
    05:00 +26°C° 0.1 mm 1 m/S 758 mmHg 95%
    06:00 +25°C° 0.1 mm 1 m/S 758 mmHg 95%
    07:00 +28°C° 0.1 mm 1 m/S 758 mmHg 84%
    08:00 +31°C° 0.1 mm 1 m/S 759 mmHg 73%
    09:00 +33°C° 0.1 mm 1 m/S 759 mmHg 62%
    10:00 +34°C° 0.2 mm 2 m/S 759 mmHg 65%
    11:00 +34°C° 0.2 mm 2 m/S 758 mmHg 67%
    12:00 +34°C° 0.2 mm 3 m/S 758 mmHg 69%
    13:00 +33°C° 0.2 mm 3 m/S 757 mmHg 73%
    14:00 +33°C° 0.2 mm 3 m/S 757 mmHg 77%
    15:00 +31°C° 0.2 mm 3 m/S 756 mmHg 81%
    16:00 +30°C° 0 mm 3 m/S 756 mmHg 85%
    17:00 +29°C° 0 mm 3 m/S 756 mmHg 89%
    18:00 +27°C° 0 mm 2 m/S 757 mmHg 93%
    19:00 +27°C° 0 mm 2 m/S 757 mmHg 94%
    20:00 +26°C° 0 mm 2 m/S 758 mmHg 95%
    21:00 +26°C° 0 mm 2 m/S 758 mmHg 96%
    22:00 +26°C° 0 mm 2 m/S 758 mmHg 95%
    23:00 +25°C° 0 mm 2 m/S 758 mmHg 94%

    22 September, Sonntag

    Zeit Temperatur Niederschläge Wind Luftdruck Luftfeuchtigkeit
    00:00 +25°C° 0 mm 2 m/S 758 mmHg 93%
    01:00 +25°C° 0 mm 2 m/S 758 mmHg 93%
    02:00 +25°C° 0 mm 2 m/S 758 mmHg 93%
    03:00 +25°C° 0 mm 2 m/S 757 mmHg 92%
    04:00 +25°C° 0 mm 2 m/S 757 mmHg 92%
    05:00 +24°C° 0 mm 2 m/S 758 mmHg 92%
    06:00 +24°C° 0 mm 2 m/S 758 mmHg 92%
    07:00 +27°C° 0 mm 2 m/S 758 mmHg 80%
    08:00 +30°C° 0 mm 1 m/S 759 mmHg 69%
    09:00 +33°C° 0 mm 1 m/S 759 mmHg 57%
    10:00 +34°C° 0 mm 1 m/S 759 mmHg 53%
    11:00 +36°C° 0 mm 2 m/S 759 mmHg 49%
    12:00 +37°C° 0 mm 2 m/S 758 mmHg 44%
    13:00 +36°C° 0 mm 2 m/S 758 mmHg 48%
    14:00 +35°C° 0 mm 3 m/S 757 mmHg 52%
    15:00 +35°C° 0 mm 3 m/S 756 mmHg 55%
    16:00 +31°C° 0 mm 3 m/S 756 mmHg 65%
    17:00 +29°C° 0 mm 2 m/S 756 mmHg 74%
    18:00 +27°C° 0 mm 2 m/S 757 mmHg 84%
    19:00 +27°C° 0 mm 2 m/S 757 mmHg 84%
    20:00 +26°C° 0 mm 2 m/S 758 mmHg 85%
    21:00 +26°C° 0 mm 1 m/S 759 mmHg 86%
    22:00 +26°C° 0 mm 2 m/S 759 mmHg 87%
    23:00 +25°C° 0 mm 2 m/S 759 mmHg 87%

    23 September, Montag

    Zeit Temperatur Niederschläge Wind Luftdruck Luftfeuchtigkeit
    00:00 +25°C° 0 mm 2 m/S 759 mmHg 87%
    01:00 +25°C° 0 mm 2 m/S 758 mmHg 88%
    02:00 +25°C° 0 mm 2 m/S 758 mmHg 89%
    03:00 +25°C° 0 mm 2 m/S 758 mmHg 90%
    04:00 +25°C° 0 mm 2 m/S 758 mmHg 90%
    05:00 +25°C° 0 mm 2 m/S 758 mmHg 91%
    06:00 +25°C° 0 mm 2 m/S 758 mmHg 92%
    07:00 +28°C° 0 mm 1 m/S 759 mmHg 80%
    08:00 +31°C° 0 mm 1 m/S 759 mmHg 69%
    09:00 +34°C° 0 mm 1 m/S 760 mmHg 58%
    10:00 +35°C° 0 mm 1 m/S 759 mmHg 53%
    11:00 +37°C° 0 mm 2 m/S 759 mmHg 48%
    12:00 +38°C° 0 mm 3 m/S 758 mmHg 43%
    13:00 +37°C° 0 mm 3 m/S 758 mmHg 47%
    14:00 +36°C° 0 mm 3 m/S 757 mmHg 50%
    15:00 +36°C° 0 mm 3 m/S 756 mmHg 54%
    16:00 +33°C° 0 mm 3 m/S 756 mmHg 64%
    17:00 +30°C° 0 mm 3 m/S 757 mmHg 75%
    18:00 +28°C° 0 mm 3 m/S 757 mmHg 85%
    19:00 +27°C° 0 mm 3 m/S 757 mmHg 87%
    20:00 +27°C° 0 mm 2 m/S 758 mmHg 89%
    21:00 +26°C° 0 mm 2 m/S 758 mmHg 91%
    22:00 +26°C° 0 mm 2 m/S 758 mmHg 92%
    23:00 +26°C° 0 mm 2 m/S 758 mmHg 93%

    24 September, Dienstag

    Zeit Temperatur Niederschläge Wind Luftdruck Luftfeuchtigkeit
    00:00 +26°C° 0 mm 3 m/S 758 mmHg 94%
    01:00 +26°C° 0 mm 2 m/S 758 mmHg 94%
    02:00 +26°C° 0 mm 2 m/S 757 mmHg 94%
    03:00 +26°C° 0 mm 2 m/S 757 mmHg 95%
    04:00 +26°C° 0 mm 2 m/S 757 mmHg 94%
    05:00 +25°C° 0 mm 1 m/S 758 mmHg 94%
    06:00 +25°C° 0 mm 1 m/S 758 mmHg 93%
    07:00 +28°C° 0 mm 1 m/S 758 mmHg 81%
    08:00 +31°C° 0 mm 1 m/S 759 mmHg 69%
    09:00 +34°C° 0 mm 1 m/S 759 mmHg 58%
    10:00 +35°C° 0 mm 1 m/S 758 mmHg 52%
    11:00 +37°C° 0 mm 2 m/S 758 mmHg 46%
    12:00 +39°C° 0 mm 2 m/S 757 mmHg 41%
    13:00 +38°C° 0 mm 3 m/S 757 mmHg 46%
    14:00 +37°C° 0 mm 3 m/S 756 mmHg 50%
    15:00 +36°C° 0 mm 3 m/S 755 mmHg 55%
    16:00 +34°C° 0 mm 3 m/S 755 mmHg 66%
    17:00 +30°C° 0 mm 3 m/S 756 mmHg 76%
    18:00 +28°C° 0 mm 3 m/S 756 mmHg 87%
    19:00 +28°C° 0 mm 3 m/S 757 mmHg 88%
    20:00 +27°C° 0 mm 3 m/S 757 mmHg 90%
    21:00 +27°C° 0 mm 2 m/S 757 mmHg 92%
    22:00 +27°C° 0 mm 2 m/S 757 mmHg 92%
    23:00 +27°C° 0 mm 2 m/S 757 mmHg 91%
    Mehr zeigen